Location: Multiple Mirror Telescope
(31.6889°N, 110.8853°W)
Time: 12:56:18
(UTC-07:00)

Hubble Space Telescope - Pass Details

Date: 02 December 2023
Orbit: 516 x 519 km, 28.5° (Epoch: 27 February)

Event Time Altitude Azimuth Distance (km) Brightness Sun altitude
Rises 18:55:42 0° 267° (W) 2,619 5.8 -20.1°
Reaches altitude 10° 18:58:12 10° 254° (WSW) 1,733 4.6 -20.6°
Maximum altitude 19:01:30 25° 198° (SSW) 1,076 2.6 -21.3°
Enters shadow 19:03:16 18° 161° (SSE) 1,299 2.6 -21.6°
